Location: Friedrichshafen
(47.6598°N, 9.4819°E)
Time: 04:50:20
(UTC+01:00)

N. Korean satellite - Visible Passes

Search period start: 22 November 2017 00:00
Search period end: 02 December 2017 00:00
Orbit: 460 x 514 km, 97.2° (Epoch: 21 November)

Date Brightness Start Highest point End Pass type
(mag) Time Alt. Az. Time Alt. Az. Time Alt. Az.
22 Nov 9.8 06:19:23 10° NE 06:22:04 19° E 06:24:45 10° SE visible
22 Nov 7.2 18:31:24 10° S 18:34:52 57° W 18:38:26 10° NNW visible
23 Nov 10.4 05:57:42 10° ENE 05:58:21 10° E 05:59:00 10° E visible
23 Nov 6.4 18:07:51 10° SSE 18:11:22 72° ENE 18:14:58 10° N visible
24 Nov 7.3 07:05:05 10° NNE 07:08:49 61° E 07:12:33 10° S visible
24 Nov 7.0 17:44:39 10° SE 17:47:57 37° ENE 17:51:19 10° N visible
24 Nov 9.6 19:19:17 10° SW 19:21:38 17° W 19:24:02 10° NW visible
25 Nov 8.7 06:41:50 10° NNE 06:45:16 32° E 06:48:41 10° SSE visible
25 Nov 7.8 17:21:51 10° ESE 17:24:36 21° ENE 17:27:24 10° NNE visible
25 Nov 8.5 18:54:48 10° SSW 18:57:57 30° W 19:01:12 10° NNW visible
26 Nov 9.8 06:18:54 10° NE 06:21:37 19° E 06:24:18 10° SE visible
26 Nov 7.2 18:30:51 10° S 18:34:22 58° W 18:37:58 10° NNW visible
27 Nov 10.4 05:57:13 10° ENE 05:57:52 10° E 05:58:32 10° E visible
27 Nov 6.4 18:07:18 10° SSE 18:10:51 72° ENE 18:14:30 10° N visible
28 Nov 7.3 07:04:34 10° NNE 07:08:20 61° E 07:12:03 10° S visible
28 Nov 7.1 17:44:05 10° SE 17:47:24 37° ENE 17:50:49 10° N visible
28 Nov 9.5 19:18:41 10° SW 19:21:06 17° W 19:23:33 10° NW visible
29 Nov 8.7 06:41:18 10° NNE 06:44:45 32° E 06:48:09 10° SSE visible
29 Nov 7.8 17:21:16 10° ESE 17:24:03 21° ENE 17:26:53 10° NNE visible
29 Nov 8.5 18:54:12 10° SSW 18:57:24 30° W 19:00:42 10° NNW visible
30 Nov 9.8 06:18:22 10° NE 06:21:04 18° E 06:23:45 10° SE visible
30 Nov 7.2 18:30:15 10° S 18:33:48 58° W 18:37:26 10° NNW visible
01 Dec 10.4 05:56:42 10° ENE 05:57:18 10° E 05:57:55 10° E visible
01 Dec 6.5 18:06:40 10° SSE 18:10:15 72° ENE 18:13:57 10° N visible
